TAP14 LPPT-LEPA

Flight info

Callsign TAP14
Flight time 1h 28m
Altitude 34000
Route ORVED DCT UREDI DCT NVS DCT NANDO DCT FENXE DCT MABUX DCT RETBA DCT MOPIR DCT LASPO DCT ORVUS M871 GODOX
Aircraft A321/M-SDE3FGHIRWY/LB1

Departure

Time 2026-05-07 18:18
Airport Lisbon Humberto Delgado Airport (LPPT)

Arrival

Time 2026-05-07 19:47
Airport Palma de Mallorca Airport (LEPA)
Time Latitude Longitude Altitude Speed Heading
2026-05-07 17:23 38.77428 -9.13143 323 ft 0 kts 78°
2026-05-07 18:00 38.77425 -9.13160 324 ft 2 kts 77°
2026-05-07 18:01 38.77422 -9.13179 324 ft 2 kts 78°
2026-05-07 18:01 38.77419 -9.13198 325 ft 2 kts 78°
2026-05-07 18:01 38.77415 -9.13216 326 ft 2 kts 77°
2026-05-07 18:01 38.77412 -9.13235 327 ft 2 kts 78°
2026-05-07 18:02 38.77398 -9.13264 328 ft 2 kts 21°
2026-05-07 18:02 38.77384 -9.13267 328 ft 1 kts 350°
2026-05-07 18:02 38.77371 -9.13263 328 ft 2 kts 353°
2026-05-07 18:03 38.77356 -9.13261 328 ft 2 kts 353°
2026-05-07 18:03 38.77341 -9.13258 327 ft 2 kts 352°
2026-05-07 18:03 38.77326 -9.13255 327 ft 2 kts 353°
2026-05-07 18:03 38.77311 -9.13253 327 ft 2 kts 352°
2026-05-07 18:04 38.77299 -9.13250 327 ft 1 kts 353°
2026-05-07 18:04 38.77284 -9.13246 327 ft 2 kts 345°
2026-05-07 18:04 38.77270 -9.13242 327 ft 2 kts 349°
2026-05-07 18:04 38.77255 -9.13238 327 ft 2 kts 347°
2026-05-07 18:05 38.77246 -9.13236 327 ft 0 kts 348°
2026-05-07 18:07 38.77247 -9.13236 327 ft 0 kts 347°
2026-05-07 18:07 38.77251 -9.13237 327 ft 1 kts 347°
2026-05-07 18:07 38.77262 -9.13240 327 ft 2 kts 347°
2026-05-07 18:08 38.77282 -9.13246 327 ft 3 kts 347°
2026-05-07 18:08 38.77313 -9.13259 327 ft 5 kts 326°
2026-05-07 18:08 38.77326 -9.13287 328 ft 0 kts 278°
2026-05-07 18:09 38.77326 -9.13289 328 ft 0 kts 279°
2026-05-07 18:09 38.77327 -9.13302 328 ft 2 kts 271°
2026-05-07 18:09 38.77323 -9.13329 329 ft 4 kts 260°
2026-05-07 18:09 38.77317 -9.13372 330 ft 5 kts 259°
2026-05-07 18:10 38.77308 -9.13431 331 ft 7 kts 258°
2026-05-07 18:10 38.77296 -9.13505 332 ft 9 kts 259°
2026-05-07 18:10 38.77284 -9.13584 335 ft 9 kts 258°
2026-05-07 18:10 38.77270 -9.13662 338 ft 8 kts 258°
2026-05-07 18:11 38.77258 -9.13738 341 ft 8 kts 258°
2026-05-07 18:11 38.77242 -9.13818 343 ft 10 kts 249°
2026-05-07 18:11 38.77186 -9.13872 343 ft 12 kts 200°
2026-05-07 18:11 38.77098 -9.13916 344 ft 13 kts 202°
2026-05-07 18:12 38.77005 -9.13966 342 ft 15 kts 203°
2026-05-07 18:12 38.76903 -9.14021 340 ft 16 kts 202°
2026-05-07 18:12 38.76799 -9.14076 339 ft 16 kts 203°
2026-05-07 18:12 38.76707 -9.14126 339 ft 13 kts 203°
2026-05-07 18:13 38.76623 -9.14171 338 ft 12 kts 204°
2026-05-07 18:13 38.76595 -9.14229 337 ft 6 kts 276°
2026-05-07 18:13 38.76604 -9.14263 338 ft 0 kts 290°
2026-05-07 18:16 38.76606 -9.14273 338 ft 2 kts 290°
2026-05-07 18:16 38.76617 -9.14310 338 ft 6 kts 291°
2026-05-07 18:17 38.76640 -9.14368 339 ft 7 kts 320°
2026-05-07 18:17 38.76676 -9.14371 340 ft 6 kts 20°
2026-05-07 18:17 38.76771 -9.14320 341 ft 35 kts 22°
2026-05-07 18:17 38.77228 -9.14075 349 ft 105 kts 22°
2026-05-07 18:18 38.78104 -9.13605 364 ft 162 kts 20°
2026-05-07 18:18 38.79132 -9.13016 936 ft 163 kts 21°
2026-05-07 18:18 38.80140 -9.12383 1603 ft 164 kts 24°
2026-05-07 18:18 38.81149 -9.11684 2170 ft 166 kts 25°
2026-05-07 18:19 38.82190 -9.10933 2420 ft 179 kts 26°
2026-05-07 18:19 38.83299 -9.10129 2788 ft 186 kts 27°
2026-05-07 18:19 38.84465 -9.09269 3096 ft 198 kts 27°
2026-05-07 18:19 38.85675 -9.08367 3480 ft 206 kts 28°
2026-05-07 18:20 38.86890 -9.07347 3874 ft 215 kts 41°
2026-05-07 18:20 38.87832 -9.05800 4147 ft 230 kts 63°
2026-05-07 18:20 38.88604 -9.03907 4410 ft 249 kts 60°
2026-05-07 18:20 38.89505 -9.01926 4763 ft 265 kts 62°
2026-05-07 18:21 38.90245 -8.99714 5206 ft 275 kts 77°
2026-05-07 18:21 38.90773 -8.97334 5902 ft 278 kts 75°
2026-05-07 18:21 38.91493 -8.95031 6637 ft 282 kts 69°
2026-05-07 18:21 38.92309 -8.92770 7355 ft 284 kts 69°
2026-05-07 18:22 38.93155 -8.90470 8071 ft 286 kts 68°
2026-05-07 18:22 38.93717 -8.88950 8537 ft 287 kts 69°
2026-05-07 18:22 38.94862 -8.85848 9442 ft 291 kts 68°
2026-05-07 18:22 38.95728 -8.83497 10112 ft 293 kts 68°
2026-05-07 18:23 38.96605 -8.81103 10587 ft 305 kts 68°
2026-05-07 18:23 38.97534 -8.78561 10891 ft 321 kts 68°
2026-05-07 18:23 38.98507 -8.75904 11225 ft 334 kts 68°
2026-05-07 18:23 38.99323 -8.73681 11660 ft 338 kts 68°
2026-05-07 18:24 38.99363 -8.73572 11685 ft 338 kts 68°
2026-05-07 18:24 39.00348 -8.70889 12275 ft 341 kts 67°
2026-05-07 18:24 39.01364 -8.68117 12852 ft 345 kts 68°
2026-05-07 18:25 39.02384 -8.65324 13398 ft 348 kts 67°
2026-05-07 18:25 39.03424 -8.62474 13968 ft 352 kts 67°
2026-05-07 18:25 39.04467 -8.59612 14485 ft 356 kts 67°
2026-05-07 18:25 39.05510 -8.56747 14991 ft 360 kts 67°
2026-05-07 18:26 39.06573 -8.53823 15484 ft 363 kts 66°
2026-05-07 18:26 39.07652 -8.50853 16006 ft 366 kts 66°
2026-05-07 18:26 39.08732 -8.47879 16515 ft 370 kts 66°
2026-05-07 18:26 39.09817 -8.44888 17004 ft 373 kts 66°
2026-05-07 18:27 39.10916 -8.41855 17459 ft 376 kts 66°
2026-05-07 18:27 39.12010 -8.38831 17920 ft 379 kts 66°
2026-05-07 18:27 39.13135 -8.35714 18361 ft 383 kts 66°
2026-05-07 18:27 39.14261 -8.32597 18790 ft 386 kts 66°
2026-05-07 18:28 39.15398 -8.29443 19197 ft 390 kts 66°
2026-05-07 18:28 39.16534 -8.26294 19609 ft 394 kts 66°
2026-05-07 18:28 39.17693 -8.23077 20026 ft 397 kts 66°
2026-05-07 18:28 39.18855 -8.19845 20419 ft 400 kts 66°
2026-05-07 18:29 39.20021 -8.16598 20791 ft 404 kts 66°
2026-05-07 18:29 39.21196 -8.13321 21166 ft 408 kts 66°
2026-05-07 18:29 39.22398 -8.09967 21563 ft 411 kts 66°
2026-05-07 18:29 39.23618 -8.06673 21934 ft 414 kts 64°
2026-05-07 18:30 39.24909 -8.03331 22316 ft 417 kts 64°
2026-05-07 18:30 39.26214 -7.99967 22673 ft 420 kts 64°
2026-05-07 18:30 39.27516 -7.96586 23036 ft 424 kts 64°
2026-05-07 18:30 39.28814 -7.93195 23417 ft 426 kts 64°
2026-05-07 18:31 39.30134 -7.89729 23814 ft 428 kts 64°
2026-05-07 18:31 39.31438 -7.86302 24151 ft 432 kts 64°
2026-05-07 18:31 39.32764 -7.82813 24484 ft 436 kts 64°
2026-05-07 18:31 39.34111 -7.79262 24858 ft 438 kts 64°
2026-05-07 18:32 39.35441 -7.75752 25194 ft 441 kts 63°
2026-05-07 18:32 39.36795 -7.72175 25526 ft 444 kts 63°
2026-05-07 18:32 39.38162 -7.68565 25873 ft 446 kts 63°
2026-05-07 18:32 39.39518 -7.64977 26195 ft 449 kts 63°
2026-05-07 18:33 39.40881 -7.61368 26499 ft 452 kts 63°
2026-05-07 18:33 39.42266 -7.57699 26800 ft 455 kts 63°
2026-05-07 18:33 39.43660 -7.53997 27113 ft 457 kts 63°
2026-05-07 18:33 39.45052 -7.50296 27432 ft 459 kts 63°
2026-05-07 18:34 39.46451 -7.46568 27738 ft 462 kts 63°
2026-05-07 18:34 39.47845 -7.42852 28037 ft 464 kts 63°
2026-05-07 18:34 39.49260 -7.39075 28306 ft 467 kts 63°
2026-05-07 18:34 39.50669 -7.35312 28571 ft 470 kts 63°
2026-05-07 18:35 39.52094 -7.31502 28833 ft 472 kts 63°
2026-05-07 18:35 39.53536 -7.27639 29074 ft 475 kts 63°
2026-05-07 18:35 39.54958 -7.23820 29348 ft 476 kts 63°
2026-05-07 18:35 39.56398 -7.19947 29617 ft 478 kts 63°
2026-05-07 18:36 39.57830 -7.16092 29933 ft 478 kts 63°
2026-05-07 18:36 39.59273 -7.12202 30258 ft 478 kts 63°
2026-05-07 18:36 39.60719 -7.08300 30566 ft 479 kts 63°
2026-05-07 18:36 39.62147 -7.04445 30885 ft 479 kts 63°
2026-05-07 18:37 39.63586 -7.00553 31192 ft 479 kts 63°
2026-05-07 18:37 39.65024 -6.96666 31498 ft 479 kts 63°
2026-05-07 18:37 39.66454 -6.92784 31816 ft 479 kts 63°
2026-05-07 18:37 39.67893 -6.88875 32095 ft 480 kts 62°
2026-05-07 18:38 39.69316 -6.85006 32372 ft 480 kts 63°
2026-05-07 18:38 39.70753 -6.81094 32609 ft 482 kts 62°
2026-05-07 18:38 39.72202 -6.77141 32831 ft 483 kts 62°
2026-05-07 18:38 39.73635 -6.73235 33050 ft 485 kts 62°
2026-05-07 18:39 39.75087 -6.69265 33257 ft 486 kts 62°
2026-05-07 18:39 39.76526 -6.65329 33462 ft 488 kts 62°
2026-05-07 18:39 39.77989 -6.61312 33649 ft 490 kts 62°
2026-05-07 18:39 39.79434 -6.57351 33834 ft 491 kts 62°
2026-05-07 18:40 39.80902 -6.53306 33841 ft 492 kts 62°
2026-05-07 18:40 39.83813 -6.45293 33846 ft 493 kts 61°
2026-05-07 18:41 39.86542 -6.37031 33842 ft 506 kts 67°
2026-05-07 18:41 39.88784 -6.28217 33839 ft 517 kts 71°
2026-05-07 18:42 39.90952 -6.19288 33841 ft 519 kts 70°
2026-05-07 18:42 39.93131 -6.10360 33842 ft 520 kts 70°
2026-05-07 18:43 39.95319 -6.01400 33842 ft 520 kts 70°
2026-05-07 18:43 39.97498 -5.92466 33854 ft 520 kts 69°
2026-05-07 18:44 39.99672 -5.83518 33849 ft 519 kts 69°
2026-05-07 18:44 40.01848 -5.74550 33857 ft 519 kts 70°
2026-05-07 18:45 40.03999 -5.65619 33853 ft 518 kts 69°
2026-05-07 18:45 40.06161 -5.56635 33859 ft 518 kts 69°
2026-05-07 18:46 40.08298 -5.47718 33865 ft 519 kts 69°
2026-05-07 18:46 40.10440 -5.38731 33868 ft 520 kts 69°
2026-05-07 18:47 40.12586 -5.29690 33877 ft 521 kts 69°
2026-05-07 18:47 40.14717 -5.20677 33893 ft 520 kts 70°
2026-05-07 18:48 40.16834 -5.11703 33895 ft 521 kts 69°
2026-05-07 18:48 40.18965 -5.02627 33890 ft 521 kts 69°
2026-05-07 18:49 40.21068 -4.93636 33883 ft 520 kts 69°
2026-05-07 18:49 40.23181 -4.84576 33882 ft 521 kts 69°
2026-05-07 18:50 40.25274 -4.75561 33877 ft 521 kts 69°
2026-05-07 18:50 40.27374 -4.66464 33885 ft 520 kts 69°
2026-05-07 18:51 40.29459 -4.57411 33899 ft 521 kts 69°
2026-05-07 18:51 40.31526 -4.48392 33906 ft 521 kts 69°
2026-05-07 18:52 40.33597 -4.39321 33906 ft 521 kts 68°
2026-05-07 18:52 40.35250 -4.30035 33905 ft 527 kts 79°
2026-05-07 18:53 40.35586 -4.20460 33907 ft 531 kts 91°
2026-05-07 18:53 40.34519 -4.10863 33912 ft 535 kts 102°
2026-05-07 18:54 40.32813 -4.01416 33911 ft 534 kts 103°
2026-05-07 18:54 40.31099 -3.92026 33913 ft 534 kts 103°
2026-05-07 18:55 40.29413 -3.82609 33909 ft 534 kts 102°
2026-05-07 18:55 40.27732 -3.73134 33910 ft 534 kts 102°
2026-05-07 18:56 40.26044 -3.63677 33917 ft 534 kts 102°
2026-05-07 18:56 40.24350 -3.54208 33920 ft 535 kts 102°
2026-05-07 18:57 40.22651 -3.44774 33923 ft 536 kts 102°
2026-05-07 18:57 40.20937 -3.35303 33926 ft 536 kts 102°
2026-05-07 18:58 40.19218 -3.25865 33931 ft 536 kts 103°
2026-05-07 18:58 40.17494 -3.16445 33936 ft 536 kts 103°
2026-05-07 18:59 40.15758 -3.07009 33942 ft 536 kts 103°
2026-05-07 18:59 40.14010 -2.97542 33939 ft 537 kts 103°
2026-05-07 19:00 40.12251 -2.88045 33942 ft 537 kts 103°
2026-05-07 19:00 40.10498 -2.78631 33941 ft 536 kts 103°
2026-05-07 19:01 40.08726 -2.69192 33943 ft 535 kts 103°
2026-05-07 19:01 40.06956 -2.59788 33951 ft 535 kts 103°
2026-05-07 19:02 40.05177 -2.50372 33952 ft 536 kts 102°
2026-05-07 19:02 40.03392 -2.40979 33950 ft 535 kts 103°
2026-05-07 19:03 40.01591 -2.31562 33943 ft 534 kts 103°
2026-05-07 19:03 39.99690 -2.22235 33952 ft 535 kts 108°
2026-05-07 19:04 39.97013 -2.13211 33953 ft 534 kts 116°
2026-05-07 19:04 39.93567 -2.04735 33978 ft 533 kts 121°
2026-05-07 19:05 39.89945 -1.96328 33989 ft 531 kts 121°
2026-05-07 19:05 39.86353 -1.87946 33965 ft 531 kts 121°
2026-05-07 19:06 39.82776 -1.79565 33966 ft 532 kts 121°
2026-05-07 19:06 39.77402 -1.66982 33971 ft 532 kts 121°
2026-05-07 19:07 39.73817 -1.58611 33957 ft 531 kts 121°
2026-05-07 19:07 39.70226 -1.50280 33979 ft 531 kts 121°
2026-05-07 19:08 39.66600 -1.41894 33974 ft 531 kts 121°
2026-05-07 19:08 39.62994 -1.33559 33964 ft 530 kts 122°
2026-05-07 19:09 39.59388 -1.25252 33972 ft 530 kts 122°
2026-05-07 19:09 39.55796 -1.17002 33978 ft 529 kts 121°
2026-05-07 19:10 39.52181 -1.08729 33966 ft 529 kts 121°
2026-05-07 19:10 39.48569 -1.00477 33970 ft 528 kts 121°
2026-05-07 19:11 39.44955 -0.92259 33979 ft 528 kts 122°
2026-05-07 19:11 39.41335 -0.83995 33989 ft 528 kts 121°
2026-05-07 19:12 39.37697 -0.75746 33985 ft 527 kts 122°
2026-05-07 19:12 39.34065 -0.67544 33983 ft 528 kts 121°
2026-05-07 19:13 39.30871 -0.59176 33971 ft 507 kts 111°
2026-05-07 19:13 39.29110 -0.50517 33970 ft 503 kts 97°
2026-05-07 19:14 39.28779 -0.41531 33777 ft 498 kts 84°
2026-05-07 19:14 39.29011 -0.37132 33543 ft 495 kts 82°
2026-05-07 19:14 39.29292 -0.32721 33302 ft 492 kts 82°
2026-05-07 19:15 39.29568 -0.28361 33059 ft 489 kts 83°
2026-05-07 19:15 39.29826 -0.24007 32822 ft 486 kts 83°
2026-05-07 19:15 39.30065 -0.19707 32582 ft 485 kts 84°
2026-05-07 19:15 39.30298 -0.15346 32354 ft 483 kts 84°
2026-05-07 19:16 39.30521 -0.11067 32101 ft 482 kts 84°
2026-05-07 19:16 39.30743 -0.06731 31727 ft 482 kts 85°
2026-05-07 19:16 39.30958 -0.02453 31206 ft 481 kts 84°
2026-05-07 19:16 39.31174 0.01852 30597 ft 482 kts 85°
2026-05-07 19:17 39.31389 0.06147 29924 ft 483 kts 85°
2026-05-07 19:17 39.31606 0.10457 29178 ft 484 kts 86°
2026-05-07 19:17 39.31817 0.14772 28545 ft 481 kts 86°
2026-05-07 19:17 39.32022 0.19007 28077 ft 474 kts 86°
2026-05-07 19:18 39.32225 0.23243 27602 ft 467 kts 86°
2026-05-07 19:18 39.32423 0.27402 27152 ft 461 kts 87°
2026-05-07 19:18 39.32616 0.31464 26707 ft 454 kts 87°
2026-05-07 19:18 39.32806 0.35506 26268 ft 447 kts 87°
2026-05-07 19:19 39.32989 0.39435 25865 ft 439 kts 88°
2026-05-07 19:19 39.33170 0.43331 25479 ft 431 kts 88°
2026-05-07 19:19 39.33349 0.47170 25026 ft 425 kts 88°
2026-05-07 19:19 39.33524 0.50979 24558 ft 420 kts 88°
2026-05-07 19:20 39.33691 0.54682 24118 ft 415 kts 89°
2026-05-07 19:20 39.33858 0.58391 23685 ft 409 kts 88°
2026-05-07 19:20 39.34019 0.61994 23254 ft 404 kts 89°
2026-05-07 19:20 39.34179 0.65619 22815 ft 400 kts 89°
2026-05-07 19:21 39.34333 0.69169 22374 ft 395 kts 89°
2026-05-07 19:21 39.34484 0.72686 21938 ft 391 kts 89°
2026-05-07 19:21 39.34633 0.76164 21500 ft 387 kts 89°
2026-05-07 19:21 39.34781 0.79628 21059 ft 384 kts 89°
2026-05-07 19:22 39.34927 0.83025 20628 ft 381 kts 88°
2026-05-07 19:22 39.35070 0.86411 20199 ft 377 kts 89°
2026-05-07 19:22 39.35212 0.89747 19774 ft 374 kts 88°
2026-05-07 19:22 39.35352 0.93079 19346 ft 371 kts 88°
2026-05-07 19:23 39.35491 0.96421 18914 ft 368 kts 88°
2026-05-07 19:23 39.35625 0.99698 18484 ft 366 kts 88°
2026-05-07 19:23 39.35757 1.02927 18063 ft 363 kts 88°
2026-05-07 19:23 39.35891 1.06199 17632 ft 360 kts 88°
2026-05-07 19:24 39.36021 1.09400 17209 ft 357 kts 88°
2026-05-07 19:24 39.36149 1.12579 16786 ft 355 kts 88°
2026-05-07 19:24 39.36276 1.15753 16361 ft 352 kts 87°
2026-05-07 19:24 39.36401 1.18889 15936 ft 350 kts 87°
2026-05-07 19:25 39.36523 1.21987 15519 ft 348 kts 87°
2026-05-07 19:25 39.36646 1.25097 15106 ft 345 kts 87°
2026-05-07 19:25 39.36767 1.28178 14686 ft 343 kts 87°
2026-05-07 19:25 39.36884 1.31228 14270 ft 341 kts 87°
2026-05-07 19:26 39.37000 1.34264 13852 ft 339 kts 87°
2026-05-07 19:26 39.37116 1.37338 13441 ft 352 kts 87°
2026-05-07 19:26 39.37280 1.40618 12972 ft 373 kts 84°
2026-05-07 19:26 39.37630 1.43916 12730 ft 374 kts 81°
2026-05-07 19:27 39.38060 1.47222 12599 ft 371 kts 80°
2026-05-07 19:27 39.38495 1.50500 12037 ft 369 kts 80°
2026-05-07 19:27 39.38923 1.53724 11395 ft 367 kts 80°
2026-05-07 19:27 39.39353 1.56980 10808 ft 363 kts 80°
2026-05-07 19:28 39.39770 1.60138 10268 ft 358 kts 80°
2026-05-07 19:28 39.40185 1.63299 9973 ft 349 kts 80°
2026-05-07 19:28 39.40579 1.66311 9943 ft 329 kts 80°
2026-05-07 19:28 39.40944 1.69117 9938 ft 311 kts 80°
2026-05-07 19:29 39.41293 1.71795 9937 ft 293 kts 80°
2026-05-07 19:29 39.41623 1.74336 9938 ft 278 kts 80°
2026-05-07 19:29 39.41941 1.76776 9944 ft 278 kts 81°
2026-05-07 19:29 39.42265 1.79272 9946 ft 278 kts 81°
2026-05-07 19:30 39.42583 1.81729 9930 ft 276 kts 81°
2026-05-07 19:30 39.42893 1.84140 9762 ft 268 kts 81°
2026-05-07 19:30 39.43194 1.86477 9588 ft 258 kts 81°
2026-05-07 19:30 39.43481 1.88707 9418 ft 250 kts 81°
2026-05-07 19:31 39.43762 1.90897 9250 ft 241 kts 81°
2026-05-07 19:31 39.44029 1.92983 9075 ft 233 kts 81°
2026-05-07 19:31 39.44290 1.95029 8823 ft 228 kts 81°
2026-05-07 19:31 39.44549 1.97053 8500 ft 227 kts 81°
2026-05-07 19:32 39.44803 1.99043 8171 ft 226 kts 81°
2026-05-07 19:32 39.45069 2.01022 7834 ft 225 kts 76°
2026-05-07 19:32 39.45797 2.02807 7459 ft 226 kts 49°
2026-05-07 19:32 39.46919 2.04219 7146 ft 225 kts 43°
2026-05-07 19:33 39.48091 2.05530 6843 ft 224 kts 42°
2026-05-07 19:33 39.49283 2.06841 6499 ft 223 kts 41°
2026-05-07 19:33 39.50467 2.08138 6185 ft 222 kts 41°
2026-05-07 19:33 39.51631 2.09406 5901 ft 220 kts 42°
2026-05-07 19:34 39.52807 2.10684 5573 ft 219 kts 42°
2026-05-07 19:34 39.53964 2.11931 5269 ft 218 kts 41°
2026-05-07 19:34 39.55116 2.13185 5004 ft 215 kts 42°
2026-05-07 19:34 39.56261 2.14433 4976 ft 216 kts 41°
2026-05-07 19:35 39.57423 2.15705 4971 ft 217 kts 44°
2026-05-07 19:35 39.58360 2.17165 4949 ft 213 kts 69°
2026-05-07 19:35 39.58505 2.19061 4961 ft 213 kts 103°
2026-05-07 19:35 39.57789 2.20734 4973 ft 218 kts 129°
2026-05-07 19:36 39.56690 2.22105 4985 ft 219 kts 135°
2026-05-07 19:36 39.55529 2.23410 4984 ft 219 kts 137°
2026-05-07 19:36 39.54379 2.24686 4969 ft 220 kts 136°
2026-05-07 19:36 39.53219 2.25972 4969 ft 219 kts 136°
2026-05-07 19:37 39.52054 2.27262 4970 ft 218 kts 137°
2026-05-07 19:37 39.50811 2.28332 4962 ft 214 kts 155°
2026-05-07 19:37 39.49447 2.28930 4962 ft 199 kts 160°
2026-05-07 19:37 39.48147 2.29385 5036 ft 192 kts 161°
2026-05-07 19:38 39.46848 2.29823 5014 ft 191 kts 163°
2026-05-07 19:38 39.45555 2.30253 4991 ft 192 kts 160°
2026-05-07 19:38 39.44446 2.31117 4922 ft 183 kts 126°
2026-05-07 19:38 39.44001 2.32571 4624 ft 176 kts 98°
2026-05-07 19:39 39.43885 2.34150 4196 ft 177 kts 93°
2026-05-07 19:39 39.43822 2.35736 3934 ft 177 kts 91°
2026-05-07 19:39 39.43771 2.37327 3711 ft 176 kts 92°
2026-05-07 19:39 39.43721 2.38902 3572 ft 177 kts 92°
2026-05-07 19:40 39.43671 2.40492 3458 ft 176 kts 91°
2026-05-07 19:40 39.43621 2.42073 3381 ft 175 kts 91°
2026-05-07 19:40 39.43572 2.43659 3308 ft 175 kts 91°
2026-05-07 19:40 39.43527 2.45229 3232 ft 175 kts 88°
2026-05-07 19:41 39.43688 2.46791 3158 ft 175 kts 77°
2026-05-07 19:41 39.44076 2.48286 3087 ft 175 kts 68°
2026-05-07 19:41 39.44619 2.49693 3013 ft 176 kts 62°
2026-05-07 19:41 39.45255 2.51057 2981 ft 176 kts 60°
2026-05-07 19:42 39.45904 2.52403 2977 ft 176 kts 60°
2026-05-07 19:42 39.46546 2.53743 2972 ft 177 kts 60°
2026-05-07 19:42 39.47194 2.55109 2819 ft 176 kts 60°
2026-05-07 19:42 39.47820 2.56437 2582 ft 170 kts 60°
2026-05-07 19:43 39.48407 2.57681 2370 ft 152 kts 61°
2026-05-07 19:43 39.48927 2.58787 2150 ft 142 kts 61°
2026-05-07 19:43 39.49447 2.59865 1974 ft 141 kts 59°
2026-05-07 19:43 39.49966 2.60932 1813 ft 139 kts 60°
2026-05-07 19:44 39.50472 2.61988 1668 ft 136 kts 61°
2026-05-07 19:44 39.50970 2.63022 1511 ft 135 kts 60°
2026-05-07 19:44 39.51453 2.64068 1326 ft 135 kts 62°
2026-05-07 19:44 39.51924 2.65122 1147 ft 136 kts 60°
2026-05-07 19:45 39.52420 2.66169 917 ft 137 kts 60°
2026-05-07 19:45 39.52908 2.67213 692 ft 135 kts 60°
2026-05-07 19:45 39.53383 2.68256 495 ft 132 kts 58°
2026-05-07 19:45 39.53859 2.69273 338 ft 132 kts 59°
2026-05-07 19:46 39.54332 2.70267 210 ft 129 kts 59°
2026-05-07 19:46 39.54803 2.71259 29 ft 128 kts 57°
2026-05-07 19:46 39.55171 2.72038 12 ft 64 kts 59°
2026-05-07 19:46 39.55396 2.72512 5 ft 57 kts 59°
2026-05-07 19:47 39.55490 2.72859 10 ft 30 kts 88°
2026-05-07 19:47 39.55497 2.73059 11 ft 13 kts 88°
2026-05-07 19:47 39.55500 2.73160 13 ft 10 kts 83°
2026-05-07 19:47 39.55527 2.73236 15 ft 8 kts 59°
2026-05-07 19:48 39.55558 2.73302 15 ft 8 kts 59°
2026-05-07 19:48 39.55593 2.73375 15 ft 9 kts 58°
2026-05-07 19:48 39.55627 2.73451 16 ft 9 kts 71°
2026-05-07 19:48 39.55601 2.73514 18 ft 8 kts 148°
2026-05-07 19:49 39.55558 2.73549 19 ft 6 kts 148°
2026-05-07 19:49 39.55522 2.73577 21 ft 5 kts 149°
2026-05-07 19:49 39.55490 2.73602 22 ft 5 kts 148°
2026-05-07 19:49 39.55453 2.73631 24 ft 6 kts 148°
2026-05-07 19:50 39.55409 2.73666 26 ft 8 kts 148°
2026-05-07 19:50 39.55358 2.73707 29 ft 9 kts 148°
2026-05-07 19:50 39.55298 2.73754 32 ft 11 kts 149°
2026-05-07 19:50 39.55226 2.73810 34 ft 13 kts 149°
2026-05-07 19:51 39.55140 2.73879 36 ft 15 kts 148°
2026-05-07 19:51 39.55034 2.73963 36 ft 19 kts 148°
2026-05-07 19:51 39.54922 2.74050 33 ft 18 kts 148°
2026-05-07 19:51 39.54831 2.74124 30 ft 10 kts 154°
2026-05-07 19:52 39.54766 2.74080 31 ft 11 kts 237°
2026-05-07 19:52 39.54723 2.73988 32 ft 12 kts 239°
2026-05-07 19:52 39.54671 2.73878 32 ft 15 kts 239°
2026-05-07 19:52 39.54613 2.73754 32 ft 15 kts 238°
2026-05-07 19:53 39.54598 2.73638 32 ft 14 kts 317°
2026-05-07 19:53 39.54689 2.73594 32 ft 12 kts 330°
2026-05-07 19:53 39.54735 2.73594 31 ft 7 kts 58°
2026-05-07 19:53 39.54750 2.73631 32 ft 2 kts 59°
2026-05-07 19:54 39.54754 2.73638 32 ft 0 kts 58°